| time (UTC) | temp C | wind direction | speed KPH | gust KPH | rain 1hr cm | rain 24hr cm | rain mn cm | humidity % | barometer mb |
| 20260506104933 | -17 | 239 | 0.0 | 0.0 | 0.00 | 0.00 | 0.00 | 1021.3 | |
| 20260506104431 | -17 | 238 | 0.0 | 0.0 | 0.00 | 0.00 | 0.00 | 1021.5 | |
| 20260506103929 | -17 | 244 | 0.0 | 0.0 | 0.00 | 0.00 | 0.00 | 1021.4 | |
| 20260506103426 | -17 | 252 | 0.0 | 0.0 | 0.00 | 0.00 | 0.00 | 1021.3 | |
| 20260506102923 | -17 | 255 | 0.0 | 0.0 | 0.00 | 0.00 | 0.00 | 1021.2 | |
| 20260506102421 | -17 | 249 | 0.0 | 0.0 | 0.00 | 0.00 | 0.00 | 1021.1 | |
| 20260506101918 | -17 | 255 | 0.0 | 0.0 | 0.00 | 0.00 | 0.00 | 1021.1 | |
| 20260506101414 | -17 | 256 | 0.0 | 0.0 | 0.00 | 0.00 | 0.00 | 1021.1 | |
| 20260506100911 | -17 | 259 | 0.0 | 0.0 | 0.00 | 0.00 | 0.00 | 1021.0 | |
| 20260506100410 | -17 | 248 | 0.0 | 0.0 | 0.00 | 0.00 | 0.00 | 1021.1 | |
| 20260506095908 | -17 | 280 | 0.0 | 0.0 | 0.00 | 0.00 | 0.00 | 1020.8 | |
| 20260506095406 | -17 | 280 | 0.0 | 0.0 | 0.00 | 0.00 | 0.00 | 1020.7 | |
| 20260506094902 | -17 | 280 | 0.0 | 0.0 | 0.00 | 0.00 | 0.00 | 1020.8 | |
| 20260506094401 | -17 | 279 | 0.0 | 0.0 | 0.00 | 0.00 | 0.00 | 1020.7 | |
| 20260506093858 | -17 | 279 | 0.0 | 0.0 | 0.00 | 0.00 | 0.00 | 1020.8 | |
| 20260506093355 | -17 | 279 | 0.0 | 0.0 | 0.00 | 0.00 | 0.00 | 1020.6 | |
| 20260506092853 | -17 | 280 | 0.0 | 0.0 | 0.00 | 0.00 | 0.00 | 1020.6 | |
| 20260506092351 | -17 | 282 | 0.0 | 0.0 | 0.00 | 0.00 | 0.00 | 1020.8 | |
| 20260506091847 | -17 | 275 | 0.0 | 0.0 | 0.00 | 0.00 | 0.00 | 1020.8 | |
| 20260506091345 | -17 | 273 | 0.0 | 0.0 | 0.00 | 0.00 | 0.00 | 1020.7 | |
| 20260506090842 | -17 | 254 | 0.0 | 0.0 | 0.00 | 0.00 | 0.00 | 1020.7 | |
| 20260506090340 | -17 | 254 | 0.0 | 0.0 | 0.00 | 0.00 | 0.00 | 1020.6 | |
| 20260506085836 | -17 | 251 | 0.0 | 0.0 | 0.00 | 0.00 | 0.00 | 1020.7 | |
| 20260506085332 | -17 | 242 | 0.0 | 0.0 | 0.00 | 0.00 | 0.00 | 1020.8 | |
| 20260506084829 | -17 | 241 | 0.0 | 0.0 | 0.00 | 0.00 | 0.00 | 1021.0 | |
| 20260506084326 | -17 | 240 | 0.0 | 0.0 | 0.00 | 0.00 | 0.00 | 1020.5 | |
| 20260506083822 | -17 | 250 | 0.0 | 0.0 | 0.00 | 0.00 | 0.00 | 1020.5 | |
| 20260506083320 | -17 | 265 | 0.0 | 0.0 | 0.00 | 0.00 | 0.00 | 1020.6 | |
| 20260506082818 | -17 | 295 | 0.0 | 0.0 | 0.00 | 0.00 | 0.00 | 1020.4 | |
| 20260506082314 | -17 | 293 | 0.0 | 0.0 | 0.00 | 0.00 | 0.00 | 1020.4 | |
| 20260506081810 | -17 | 299 | 0.0 | 0.0 | 0.00 | 0.00 | 0.00 | 1020.3 | |
| 20260506081308 | -17 | 274 | 0.0 | 0.0 | 0.00 | 0.00 | 0.00 | 1020.3 | |
| 20260506080806 | -17 | 285 | 0.0 | 0.0 | 0.00 | 0.00 | 0.00 | 1020.2 | |
| 20260506080302 | -17 | 278 | 0.0 | 0.0 | 0.00 | 0.00 | 0.00 | 1020.2 | |
| 20260506073246 | -17 | 286 | 0.0 | 0.0 | 0.00 | 0.00 | 0.00 | 1019.7 | |
| 20260506072743 | -17 | 286 | 0.0 | 0.0 | 0.00 | 0.00 | 0.00 | 1019.9 | |
| 20260506072240 | -17 | 244 | 0.0 | 0.0 | 0.00 | 0.00 | 0.00 | 1019.8 | |
| 20260506071738 | -17 | 239 | 0.0 | 0.0 | 0.00 | 0.00 | 0.00 | 1019.8 | |
| 20260506071236 | -17 | 239 | 0.0 | 0.0 | 0.00 | 0.00 | 0.00 | 1020.0 | |
| 20260506070732 | -17 | 235 | 0.0 | 0.0 | 0.00 | 0.00 | 0.00 | 1019.7 | |
| 20260506070229 | -17 | 323 | 0.0 | 0.0 | 0.00 | 0.00 | 0.00 | 1019.7 | |
| 20260506062206 | -17 | 334 | 0.0 | 0.0 | 0.00 | 0.00 | 0.00 | 1019.8 | |
| 20260506061702 | -17 | 334 | 0.0 | 0.0 | 0.00 | 0.00 | 0.00 | 1019.7 | |
| 20260506061200 | -17 | 333 | 0.0 | 0.0 | 0.00 | 0.00 | 0.00 | 1019.6 | |
| 20260506060658 | -17 | 337 | 0.0 | 0.0 | 0.00 | 0.00 | 0.00 | 1019.6 | |
| 20260506060155 | -17 | 342 | 1.6 | 1.6 | 0.00 | 0.00 | 0.00 | 1019.9 | |
| 20260506051127 | -17 | 306 | 1.6 | 1.6 | 0.00 | 0.00 | 0.00 | 1019.6 | |
| 20260506050625 | -17 | 323 | 1.6 | 1.6 | 0.00 | 0.00 | 0.00 | 1019.6 | |
| 20260506050122 | -17 | 291 | 0.0 | 0.0 | 0.00 | 0.00 | 0.00 | 1019.5 | |
| 20260506045115 | -17 | 234 | 1.6 | 1.6 | 0.00 | 0.00 | 0.00 | 1019.3 | |
| 20260506044613 | -17 | 310 | 1.6 | 1.6 | 0.00 | 0.00 | 0.00 | 1019.5 | |
| 20260506044110 | -17 | 282 | 0.0 | 1.6 | 0.00 | 0.00 | 0.00 | 1019.2 | |
| 20260506043607 | -17 | 278 | 1.6 | 3.2 | 0.00 | 0.00 | 0.00 | 1019.3 | |
| 20260506043105 | -17 | 243 | 0.0 | 0.0 | 0.00 | 0.00 | 0.00 | 1019.2 | |
| 20260506042604 | -17 | 250 | 3.2 | 3.2 | 0.00 | 0.00 | 0.00 | 1019.1 | |
| 20260506042101 | -17 | 240 | 1.6 | 1.6 | 0.00 | 0.00 | 0.00 | 1019.1 | |
| 20260506041600 | -17 | 238 | 3.2 | 3.2 | 0.00 | 0.00 | 0.00 | 1018.8 | |
| 20260506041056 | -17 | 241 | 1.6 | 1.6 | 0.00 | 0.00 | 0.00 | 1019.2 | |
| 20260506040554 | -17 | 246 | 3.2 | 3.2 | 0.00 | 0.00 | 0.00 | 1018.9 | |
| 20260506040050 | -17 | 245 | 3.2 | 3.2 | 0.00 | 0.00 | 0.00 | 1018.7 | |
| 20260506035547 | -17 | 244 | 3.2 | 3.2 | 0.00 | 0.00 | 0.00 | 1018.9 | |
| 20260506035044 | -17 | 217 | 1.6 | 1.6 | 0.00 | 0.00 | 0.00 | 1018.7 | |
| 20260506034541 | -17 | 255 | 1.6 | 3.2 | 0.00 | 0.00 | 0.00 | 1019.1 | |
| 20260506034038 | -17 | 229 | 1.6 | 3.2 | 0.00 | 0.00 | 0.00 | 1018.7 | |
| 20260506033536 | -17 | 235 | 0.0 | 3.2 | 0.00 | 0.00 | 0.00 | 1018.6 | |
| 20260506033032 | -17 | 241 | 3.2 | 3.2 | 0.00 | 0.00 | 0.00 | 1018.6 | |
| 20260506032530 | -17 | 225 | 3.2 | 3.2 | 0.00 | 0.00 | 0.00 | 1018.5 | |
| 20260506032026 | -17 | 231 | 1.6 | 1.6 | 0.00 | 0.00 | 0.00 | 1018.4 | |
| 20260506031524 | -17 | 246 | 3.2 | 3.2 | 0.00 | 0.00 | 0.00 | 1018.7 | |
| 20260506031021 | -17 | 234 | 3.2 | 3.2 | 0.00 | 0.00 | 0.00 | 1018.4 | |
| 20260506030519 | -17 | 229 | 1.6 | 1.6 | 0.00 | 0.00 | 0.00 | 1018.1 | |
| 20260506030016 | -17 | 264 | 0.0 | 3.2 | 0.00 | 0.00 | 0.00 | 1018.2 | |
| 20260506025513 | -17 | 246 | 1.6 | 3.2 | 0.00 | 0.00 | 0.00 | 1018.3 | |
| 20260506025009 | -17 | 239 | 1.6 | 3.2 | 0.00 | 0.00 | 0.00 | 1018.2 | |
| 20260506024506 | -17 | 228 | 1.6 | 1.6 | 0.00 | 0.00 | 0.00 | 1017.9 | |
| 20260506024001 | -17 | 238 | 1.6 | 3.2 | 0.00 | 0.00 | 0.00 | 1018.2 | |
| 20260506023458 | -17 | 277 | 1.6 | 3.2 | 0.00 | 0.00 | 0.00 | 1018.1 | |
| 20260506022955 | -17 | 240 | 1.6 | 3.2 | 0.00 | 0.00 | 0.00 | 1018.0 | |
| 20260506022453 | -17 | 237 | 0.0 | 1.6 | 0.00 | 0.00 | 0.00 | 1018.0 | |
| 20260506021951 | -17 | 236 | 1.6 | 1.6 | 0.00 | 0.00 | 0.00 | 1017.9 | |
| 20260506021448 | -17 | 246 | 0.0 | 1.6 | 0.00 | 0.00 | 0.00 | 1018.0 | |
| 20260506020945 | -17 | 260 | 0.0 | 0.0 | 0.00 | 0.00 | 0.00 | 1018.0 | |
| 20260506020442 | -17 | 263 | 1.6 | 3.2 | 0.00 | 0.00 | 0.00 | 1017.7 | |
| 20260506015939 | -17 | 275 | 0.0 | 1.6 | 0.00 | 0.00 | 0.00 | 1017.9 | |
| 20260506015437 | -17 | 262 | 0.0 | 0.0 | 0.00 | 0.00 | 0.00 | 1017.9 | |
| 20260506014934 | -17 | 254 | 1.6 | 1.6 | 0.00 | 0.00 | 0.00 | 1017.9 | |
| 20260506014431 | -17 | 269 | 1.6 | 1.6 | 0.00 | 0.00 | 0.00 | 1017.6 | |
| 20260506013927 | -17 | 240 | 0.0 | 0.0 | 0.00 | 0.00 | 0.00 | 1017.8 | |
| 20260506013425 | -17 | 240 | 1.6 | 3.2 | 0.00 | 0.00 | 0.00 | 1017.8 | |
| 20260506012921 | -17 | 233 | 0.0 | 1.6 | 0.00 | 0.00 | 0.00 | 1017.7 | |
| 20260506012418 | -17 | 250 | 0.0 | 1.6 | 0.00 | 0.00 | 0.00 | 1017.7 | |
| 20260506011915 | -17 | 234 | 1.6 | 3.2 | 0.00 | 0.00 | 0.00 | 1017.7 | |
| 20260506011412 | -17 | 222 | 1.6 | 1.6 | 0.00 | 0.00 | 0.00 | 1017.8 | |
| 20260506010909 | -17 | 254 | 0.0 | 0.0 | 0.00 | 0.00 | 0.00 | 1017.5 | |
| 20260506010408 | -17 | 241 | 0.0 | 0.0 | 0.00 | 0.00 | 0.00 | 1017.8 | |
| 20260506005904 | -17 | 258 | 0.0 | 1.6 | 0.00 | 0.00 | 0.00 | 1017.6 | |
| 20260506005401 | -17 | 234 | 0.0 | 0.0 | 0.00 | 0.00 | 0.00 | 1017.3 | |
| 20260506004856 | -17 | 303 | 0.0 | 1.6 | 0.00 | 0.00 | 0.00 | 1017.8 | |
| 20260506004355 | -17 | 240 | 0.0 | 0.0 | 0.00 | 0.00 | 0.00 | 1017.5 | |
| 20260506003850 | -17 | 280 | 0.0 | 0.0 | 0.00 | 0.00 | 0.00 | 1017.7 | |
| 20260506003347 | -17 | 265 | 0.0 | 1.6 | 0.00 | 0.00 | 0.00 | 1017.8 | |
| 20260506002843 | -17 | 240 | 0.0 | 0.0 | 0.00 | 0.00 | 0.00 | 1017.7 | |
| 20260506002340 | -17 | 257 | 0.0 | 0.0 | 0.00 | 0.00 | 0.00 | 1017.6 | |
| 20260506001835 | -17 | 271 | 0.0 | 0.0 | 0.00 | 0.00 | 0.00 | 1017.6 | |
| 20260506001333 | -17 | 258 | 0.0 | 0.0 | 0.00 | 0.00 | 0.00 | 1017.6 | |
| 20260506000829 | -17 | 252 | 0.0 | 0.0 | 0.00 | 0.00 | 0.00 | 1017.8 | |
| 20260506000329 | -17 | 241 | 0.0 | 1.6 | 0.00 | 0.00 | 0.00 | 1017.7 | |
| 20260505235824 | -17 | 253 | 0.0 | 0.0 | 0.00 | 0.00 | 0.00 | 1017.7 | |
| 20260505235321 | -17 | 251 | 0.0 | 1.6 | 0.00 | 0.00 | 0.00 | 1017.6 | |
| 20260505234818 | -17 | 282 | 0.0 | 0.0 | 0.00 | 0.00 | 0.00 | 1017.7 | |
| 20260505234316 | -17 | 276 | 0.0 | 0.0 | 0.00 | 0.00 | 0.00 | 1017.8 | |
| 20260505233813 | -17 | 235 | 0.0 | 0.0 | 0.00 | 0.00 | 0.00 | 1017.8 | |
| 20260505233311 | -17 | 300 | 0.0 | 0.0 | 0.00 | 0.00 | 0.00 | 1017.7 | |
| 20260505232808 | -17 | 250 | 0.0 | 0.0 | 0.00 | 0.00 | 0.00 | 1018.0 | |
| 20260505232306 | -17 | 326 | 0.0 | 0.0 | 0.00 | 0.00 | 0.00 | 1017.9 | |
| 20260505231801 | -17 | 256 | 0.0 | 0.0 | 0.00 | 0.00 | 0.00 | 1018.0 | |
| 20260505231300 | -17 | 275 | 0.0 | 0.0 | 0.00 | 0.00 | 0.00 | 1017.8 | |
| 20260505230758 | -17 | 249 | 0.0 | 0.0 | 0.00 | 0.00 | 0.00 | 1017.9 | |
| 20260505230254 | -17 | 281 | 0.0 | 0.0 | 0.00 | 0.00 | 0.00 | 1017.9 | |
| 20260505225751 | -17 | 219 | 0.0 | 0.0 | 0.00 | 0.00 | 0.00 | 1018.1 | |
| 20260505225249 | -17 | 260 | 0.0 | 1.6 | 0.00 | 0.00 | 0.00 | 1017.9 | |
| 20260505224743 | -17 | 327 | 0.0 | 0.0 | 0.00 | 0.00 | 0.00 | 1017.7 | |
| 20260505224241 | -17 | 256 | 0.0 | 0.0 | 0.00 | 0.00 | 0.00 | 1018.4 | |
| 20260505223739 | -17 | 251 | 0.0 | 0.0 | 0.00 | 0.00 | 0.00 | 1017.8 | |
| 20260505223235 | -17 | 253 | 0.0 | 0.0 | 0.00 | 0.00 | 0.00 | 1018.0 | |
| 20260505222731 | -17 | 304 | 0.0 | 1.6 | 0.00 | 0.00 | 0.00 | 1018.0 | |
| 20260505222227 | -17 | 334 | 0.0 | 0.0 | 0.00 | 0.00 | 0.00 | 1018.1 | |
| 20260505221725 | -17 | 269 | 0.0 | 0.0 | 0.00 | 0.00 | 0.00 | 1018.0 | |
| 20260505221221 | -17 | 305 | 0.0 | 0.0 | 0.00 | 0.00 | 0.00 | 1018.2 | |
| 20260505220718 | -17 | 247 | 0.0 | 0.0 | 0.00 | 0.00 | 0.00 | 1017.9 | |
| 20260505220216 | -17 | 300 | 0.0 | 0.0 | 0.00 | 0.00 | 0.00 | 1017.9 | |
| 20260505215713 | -17 | 295 | 0.0 | 0.0 | 0.00 | 0.00 | 0.00 | 1018.1 | |
| 20260505215211 | -17 | 243 | 0.0 | 0.0 | 0.00 | 0.00 | 0.00 | 1018.2 | |
| 20260505214708 | -17 | 343 | 0.0 | 0.0 | 0.00 | 0.00 | 0.00 | 1017.9 | |
| 20260505214206 | -17 | 282 | 0.0 | 1.6 | 0.00 | 0.00 | 0.00 | 1017.9 | |
| 20260505213703 | -17 | 281 | 0.0 | 0.0 | 0.00 | 0.00 | 0.00 | 1017.8 | |
| 20260505213200 | -17 | 280 | 0.0 | 0.0 | 0.00 | 0.00 | 0.00 | 1017.7 | |
| 20260505212656 | -17 | 249 | 0.0 | 0.0 | 0.00 | 0.00 | 0.00 | 1017.5 | |
| 20260505212153 | -17 | 258 | 0.0 | 0.0 | 0.00 | 0.00 | 0.00 | 1017.7 | |
| 20260505211650 | -17 | 249 | 0.0 | 0.0 | 0.00 | 0.00 | 0.00 | 1017.7 | |
| 20260505211148 | -17 | 246 | 0.0 | 0.0 | 0.00 | 0.00 | 0.00 | 1017.8 | |
| 20260505210644 | -17 | 266 | 0.0 | 0.0 | 0.00 | 0.00 | 0.00 | 1017.8 | |
| 20260505210141 | -17 | 351 | 0.0 | 0.0 | 0.00 | 0.00 | 0.00 | 1017.5 | |
| 20260505205638 | -17 | 275 | 0.0 | 0.0 | 0.00 | 0.00 | 0.00 | 1017.5 | |
| 20260505205137 | -17 | 270 | 0.0 | 0.0 | 0.00 | 0.00 | 0.00 | 1017.7 | |
| 20260505204633 | -17 | 263 | 0.0 | 0.0 | 0.00 | 0.00 | 0.00 | 1017.5 | |
| 20260505204131 | -17 | 234 | 0.0 | 0.0 | 0.00 | 0.00 | 0.00 | 1017.5 | |
| 20260505203627 | -17 | 312 | 0.0 | 0.0 | 0.00 | 0.00 | 0.00 | 1017.5 | |
| 20260505203125 | -17 | 295 | 0.0 | 0.0 | 0.00 | 0.00 | 0.00 | 1017.5 | |
| 20260505202620 | -17 | 259 | 0.0 | 0.0 | 0.00 | 0.00 | 0.00 | 1017.4 | |
| 20260505202116 | -17 | 304 | 0.0 | 0.0 | 0.00 | 0.00 | 0.00 | 1017.5 | |
| 20260505201613 | -17 | 248 | 0.0 | 0.0 | 0.00 | 0.00 | 0.00 | 1017.3 | |
| 20260505201111 | -17 | 261 | 0.0 | 0.0 | 0.00 | 0.00 | 0.00 | 1017.2 | |
| 20260505200609 | -17 | 267 | 0.0 | 0.0 | 0.00 | 0.00 | 0.00 | 1017.5 | |
| 20260505200105 | -17 | 269 | 0.0 | 0.0 | 0.00 | 0.00 | 0.00 | 1017.5 | |
| 20260505195601 | -17 | 269 | 0.0 | 0.0 | 0.00 | 0.00 | 0.00 | 1017.5 | |
| 20260505195059 | -17 | 290 | 0.0 | 0.0 | 0.00 | 0.00 | 0.00 | 1017.6 | |
| 20260505194556 | -17 | 277 | 0.0 | 0.0 | 0.00 | 0.00 | 0.00 | 1017.6 | |
| 20260505194051 | -17 | 295 | 0.0 | 0.0 | 0.00 | 0.00 | 0.00 | 1017.6 | |
| 20260505193549 | -17 | 286 | 0.0 | 0.0 | 0.00 | 0.00 | 0.00 | 1017.6 | |
| 20260505193046 | -17 | 327 | 0.0 | 0.0 | 0.00 | 0.00 | 0.00 | 1017.6 | |
| 20260505192545 | -17 | 321 | 0.0 | 0.0 | 0.00 | 0.00 | 0.00 | 1017.9 | |
| 20260505192042 | -17 | 307 | 0.0 | 0.0 | 0.00 | 0.00 | 0.00 | 1017.6 | |
| 20260505191540 | -17 | 269 | 0.0 | 0.0 | 0.00 | 0.00 | 0.00 | 1017.9 | |
| 20260505191038 | -17 | 320 | 0.0 | 0.0 | 0.00 | 0.00 | 0.00 | 1017.7 | |
| 20260505190532 | -17 | 324 | 0.0 | 0.0 | 0.00 | 0.00 | 0.00 | 1017.8 | |
| 20260505190028 | -17 | 248 | 0.0 | 0.0 | 0.00 | 0.00 | 0.00 | 1017.8 | |
| 20260505185525 | -17 | 272 | 0.0 | 0.0 | 0.00 | 0.00 | 0.00 | 1017.9 | |
| 20260505185021 | -17 | 266 | 0.0 | 0.0 | 0.00 | 0.00 | 0.00 | 1017.7 | |
| 20260505184518 | -17 | 277 | 0.0 | 0.0 | 0.00 | 0.00 | 0.00 | 1017.8 | |
| 20260505184015 | -17 | 312 | 0.0 | 0.0 | 0.00 | 0.00 | 0.00 | 1017.9 | |
| 20260505183512 | -17 | 247 | 0.0 | 0.0 | 0.00 | 0.00 | 0.00 | 1018.1 | |
| 20260505183009 | -17 | 250 | 0.0 | 0.0 | 0.00 | 0.00 | 0.00 | 1017.8 | |
| 20260505182506 | -17 | 272 | 0.0 | 0.0 | 0.00 | 0.00 | 0.00 | 1017.8 | |
| 20260505182002 | -17 | 254 | 0.0 | 0.0 | 0.00 | 0.00 | 0.00 | 1017.9 | |
| 20260505181459 | -17 | 242 | 0.0 | 0.0 | 0.00 | 0.00 | 0.00 | 1017.9 | |
| 20260505180956 | -17 | 262 | 0.0 | 0.0 | 0.00 | 0.00 | 0.00 | 1017.8 | |
| 20260505180452 | -17 | 261 | 0.0 | 0.0 | 0.00 | 0.00 | 0.00 | 1017.8 | |
| 20260505175949 | -17 | 295 | 0.0 | 0.0 | 0.00 | 0.00 | 0.00 | 1017.8 | |
| 20260505175445 | -17 | 276 | 0.0 | 0.0 | 0.00 | 0.00 | 0.00 | 1017.5 | |
| 20260505174942 | -17 | 235 | 0.0 | 0.0 | 0.00 | 0.00 | 0.00 | 1017.8 | |
| 20260505174439 | -17 | 252 | 0.0 | 0.0 | 0.00 | 0.00 | 0.00 | 1017.4 | |
| 20260505173935 | -17 | 267 | 0.0 | 0.0 | 0.00 | 0.00 | 0.00 | 1017.6 | |
| 20260505173432 | -17 | 239 | 0.0 | 0.0 | 0.00 | 0.00 | 0.00 | 1017.5 | |
| 20260505172929 | -17 | 276 | 0.0 | 0.0 | 0.00 | 0.00 | 0.00 | 1017.4 | |
| 20260505172427 | -17 | 240 | 0.0 | 0.0 | 0.00 | 0.00 | 0.00 | 1017.7 | |
| 20260505171926 | -17 | 241 | 0.0 | 0.0 | 0.00 | 0.00 | 0.00 | 1017.7 | |
| 20260505171424 | -17 | 245 | 0.0 | 0.0 | 0.00 | 0.00 | 0.00 | 1017.6 | |
| 20260505170920 | -17 | 244 | 0.0 | 0.0 | 0.00 | 0.00 | 0.00 | 1017.7 | |
| 20260505170417 | -17 | 245 | 0.0 | 0.0 | 0.00 | 0.00 | 0.00 | 1017.4 | |
| 20260505165912 | -17 | 257 | 0.0 | 0.0 | 0.00 | 0.00 | 0.00 | 1017.5 | |
| 20260505165408 | -17 | 255 | 0.0 | 0.0 | 0.00 | 0.00 | 0.00 | 1017.5 | |
| 20260505164903 | -17 | 257 | 0.0 | 0.0 | 0.00 | 0.00 | 0.00 | 1017.4 | |
| 20260505164400 | -17 | 240 | 0.0 | 0.0 | 0.00 | 0.00 | 0.00 | 1017.7 | |
| 20260505163859 | -17 | 242 | 0.0 | 0.0 | 0.00 | 0.00 | 0.00 | 1017.6 | |
| 20260505163358 | -17 | 259 | 0.0 | 0.0 | 0.00 | 0.00 | 0.00 | 1017.5 | |
| 20260505162856 | -17 | 240 | 0.0 | 0.0 | 0.00 | 0.00 | 0.00 | 1017.5 | |
| 20260505162351 | -17 | 237 | 0.0 | 0.0 | 0.00 | 0.00 | 0.00 | 1017.6 | |
| 20260505161849 | -17 | 238 | 0.0 | 0.0 | 0.00 | 0.00 | 0.00 | 1017.7 | |
| 20260505161345 | -17 | 238 | 0.0 | 0.0 | 0.00 | 0.00 | 0.00 | 1017.6 | |
| 20260505160843 | -17 | 241 | 0.0 | 0.0 | 0.00 | 0.00 | 0.00 | 1017.5 | |
| 20260505160341 | -17 | 243 | 0.0 | 0.0 | 0.00 | 0.00 | 0.00 | 1017.6 | |
| 20260505153320 | -17 | 241 | 0.0 | 0.0 | 0.00 | 0.00 | 0.00 | 1017.6 | |
| 20260505152817 | -17 | 240 | 0.0 | 0.0 | 0.00 | 0.00 | 0.00 | 1017.6 | |
| 20260505152314 | -17 | 240 | 0.0 | 0.0 | 0.00 | 0.00 | 0.00 | 1017.5 | |
| 20260505151814 | -17 | 240 | 0.0 | 0.0 | 0.00 | 0.00 | 0.00 | 1017.4 | |
| 20260505151311 | -17 | 240 | 0.0 | 0.0 | 0.00 | 0.00 | 0.00 | 1017.4 | |
| 20260505150808 | -17 | 238 | 0.0 | 0.0 | 0.00 | 0.00 | 0.00 | 1017.3 | |
| 20260505150305 | -17 | 241 | 0.0 | 0.0 | 0.00 | 0.00 | 0.00 | 1017.5 | |
| 20260505140229 | -17 | 242 | 0.0 | 0.0 | 0.00 | 0.00 | 0.00 | 1017.2 | |
| 20260505130153 | -17 | 250 | 0.0 | 0.0 | 0.00 | 0.00 | 0.00 | 1016.8 | |
| 20260505124643 | -17 | 250 | 0.0 | 0.0 | 0.00 | 0.00 | 0.00 | 1016.6 | |
| 20260505124139 | -17 | 250 | 0.0 | 0.0 | 0.00 | 0.00 | 0.00 | 1016.5 | |
| 20260505123635 | -17 | 250 | 0.0 | 0.0 | 0.00 | 0.00 | 0.00 | 1016.3 | |
| 20260505123132 | -17 | 250 | 0.0 | 0.0 | 0.00 | 0.00 | 0.00 | 1016.5 | |
| 20260505122629 | -17 | 250 | 0.0 | 0.0 | 0.00 | 0.00 | 0.00 | 1016.4 | |
| 20260505122126 | -17 | 250 | 0.0 | 0.0 | 0.00 | 0.00 | 0.00 | 1016.6 | |
| 20260505121623 | -17 | 250 | 0.0 | 0.0 | 0.00 | 0.00 | 0.00 | 1016.5 | |
| 20260505121120 | -17 | 250 | 0.0 | 0.0 | 0.00 | 0.00 | 0.00 | 1016.2 | |
| 20260505120616 | -17 | 250 | 0.0 | 0.0 | 0.00 | 0.00 | 0.00 | 1016.4 | |
| 20260505120112 | -17 | 250 | 0.0 | 0.0 | 0.00 | 0.00 | 0.00 | 1016.3 | |
| 20260505115611 | -17 | 250 | 0.0 | 0.0 | 0.00 | 0.00 | 0.00 | 1016.1 | |
| 20260505115109 | -17 | 250 | 0.0 | 0.0 | 0.00 | 0.00 | 0.00 | 1016.0 | |
| 20260505114606 | -17 | 250 | 0.0 | 0.0 | 0.00 | 0.00 | 0.00 | 1016.4 | |
| 20260505114102 | -17 | 251 | 0.0 | 0.0 | 0.00 | 0.00 | 0.00 | 1016.4 | |
| 20260505113559 | -17 | 251 | 0.0 | 0.0 | 0.00 | 0.00 | 0.00 | 1016.5 | |
| 20260505113056 | -17 | 251 | 0.0 | 0.0 | 0.00 | 0.00 | 0.00 | 1016.5 | |
| 20260505112552 | -17 | 251 | 0.0 | 0.0 | 0.00 | 0.00 | 0.00 | 1016.4 | |
| 20260505112051 | -17 | 251 | 0.0 | 0.0 | 0.00 | 0.00 | 0.00 | 1016.5 | |
| 20260505111550 | -17 | 251 | 0.0 | 0.0 | 0.00 | 0.00 | 0.00 | 1016.2 | |
| 20260505111046 | -17 | 251 | 0.0 | 0.0 | 0.00 | 0.00 | 0.00 | 1016.2 | |
| 20260505110543 | -17 | 252 | 0.0 | 0.0 | 0.00 | 0.00 | 0.00 | 1016.3 |